TimeCST,TemperatureF,Dew PointF,Humidity,Sea Level PressureIn,VisibilityMPH,Wind Direction,Wind SpeedMPH,Gust SpeedMPH,PrecipitationIn,Events,Conditions,WindDirDegrees,DateUTC
12:15 AM,33.8,21.2,60,30.19,10.0,SW,8.1,-,N/A,,Clear,230,2012-11-28 06:15:00
12:35 AM,33.8,21.2,60,30.19,10.0,SW,10.4,-,N/A,,Clear,230,2012-11-28 06:35:00
12:55 AM,32.0,21.2,64,30.19,10.0,WSW,10.4,-,N/A,,Clear,240,2012-11-28 06:55:00
1:15 AM,33.8,21.2,60,30.19,10.0,WSW,10.4,-,N/A,,Clear,240,2012-11-28 07:15:00
1:35 AM,33.8,23.0,65,30.18,10.0,WSW,10.4,-,N/A,,Clear,240,2012-11-28 07:35:00
1:55 AM,35.6,23.0,60,30.18,10.0,WSW,11.5,-,N/A,,Clear,240,2012-11-28 07:55:00
2:15 AM,35.6,23.0,60,30.19,10.0,WSW,9.2,-,N/A,,Clear,240,2012-11-28 08:15:00
2:35 AM,33.8,23.0,65,30.19,10.0,WSW,11.5,-,N/A,,Clear,240,2012-11-28 08:35:00
2:55 AM,35.6,23.0,60,30.19,10.0,WSW,10.4,-,N/A,,Clear,250,2012-11-28 08:55:00
3:15 AM,35.6,23.0,60,30.20,10.0,WSW,12.7,-,N/A,,Clear,250,2012-11-28 09:15:00
3:35 AM,35.6,23.0,60,30.20,10.0,WSW,10.4,-,N/A,,Clear,250,2012-11-28 09:35:00
3:55 AM,35.6,23.0,60,30.20,10.0,West,10.4,-,N/A,,Clear,260,2012-11-28 09:55:00
4:15 AM,35.6,23.0,60,30.20,10.0,West,11.5,-,N/A,,Clear,260,2012-11-28 10:15:00
4:35 AM,33.8,23.0,65,30.20,10.0,West,11.5,-,N/A,,Clear,260,2012-11-28 10:35:00
4:55 AM,28.4,19.4,69,30.20,10.0,WNW,10.4,16.1,N/A,,Clear,290,2012-11-28 10:55:00
5:15 AM,28.4,19.4,69,30.20,10.0,WNW,9.2,-,N/A,,Clear,300,2012-11-28 11:15:00
5:35 AM,28.4,17.6,64,30.20,10.0,NW,11.5,-,N/A,,Clear,310,2012-11-28 11:35:00
5:55 AM,28.4,14.0,55,30.20,10.0,NW,9.2,-,N/A,,Clear,310,2012-11-28 11:55:00
6:15 AM,26.6,14.0,59,30.21,10.0,NNW,6.9,-,N/A,,Clear,330,2012-11-28 12:15:00
6:35 AM,24.8,14.0,64,30.22,10.0,NNW,6.9,-,N/A,,Clear,340,2012-11-28 12:35:00
6:55 AM,24.8,14.0,64,30.21,10.0,NW,5.8,-,N/A,,Clear,320,2012-11-28 12:55:00
7:15 AM,23.0,14.0,68,30.22,10.0,NW,5.8,-,N/A,,Clear,320,2012-11-28 13:15:00
7:35 AM,26.6,14.0,59,30.22,10.0,NW,5.8,-,N/A,,Clear,320,2012-11-28 13:35:00
7:55 AM,26.6,14.0,59,30.22,10.0,NW,6.9,-,N/A,,Clear,310,2012-11-28 13:55:00
8:15 AM,26.6,14.0,59,30.22,10.0,NW,8.1,-,N/A,,Clear,320,2012-11-28 14:15:00
8:35 AM,28.4,15.8,59,30.22,10.0,North,8.1,-,N/A,,Clear,350,2012-11-28 14:35:00
8:55 AM,32.0,19.4,60,30.22,10.0,NNW,10.4,-,N/A,,Clear,340,2012-11-28 14:55:00
9:15 AM,33.8,21.2,60,30.24,10.0,North,9.2,-,N/A,,Clear,350,2012-11-28 15:15:00
9:35 AM,35.6,21.2,56,30.24,10.0,North,5.8,-,N/A,,Clear,360,2012-11-28 15:35:00
9:55 AM,37.4,23.0,56,30.24,10.0,North,6.9,-,N/A,,Clear,360,2012-11-28 15:55:00
10:15 AM,41.0,23.0,49,30.25,10.0,NW,3.5,-,N/A,,Clear,320,2012-11-28 16:15:00
10:35 AM,41.0,23.0,49,30.24,10.0,NNW,3.5,-,N/A,,Clear,330,2012-11-28 16:35:00
10:55 AM,42.8,23.0,46,30.24,10.0,Calm,Calm,-,N/A,,Clear,0,2012-11-28 16:55:00
11:15 AM,44.6,23.0,43,30.24,10.0,WNW,3.5,-,N/A,,Clear,290,2012-11-28 17:15:00
11:35 AM,46.4,23.0,40,30.23,10.0,Calm,Calm,-,N/A,,Clear,0,2012-11-28 17:35:00
11:55 AM,50.0,23.0,35,30.22,10.0,Calm,Calm,-,N/A,,Clear,0,2012-11-28 17:55:00
12:15 PM,51.8,24.8,35,30.20,10.0,Calm,Calm,-,N/A,,Clear,0,2012-11-28 18:15:00
12:35 PM,51.8,24.8,35,30.20,10.0,Calm,Calm,-,N/A,,Clear,0,2012-11-28 18:35:00
12:55 PM,53.6,23.0,30,30.18,10.0,Calm,Calm,-,N/A,,Clear,0,2012-11-28 18:55:00
1:15 PM,55.4,23.0,29,30.17,10.0,Calm,Calm,-,N/A,,Clear,0,2012-11-28 19:15:00
1:35 PM,55.4,23.0,29,30.17,10.0,South,4.6,-,N/A,,Clear,180,2012-11-28 19:35:00
1:55 PM,57.2,23.0,27,30.16,10.0,SW,5.8,-,N/A,,Clear,220,2012-11-28 19:55:00
2:15 PM,59.0,23.0,25,30.15,10.0,South,3.5,-,N/A,,Clear,190,2012-11-28 20:15:00
2:35 PM,59.0,21.2,23,30.15,10.0,South,9.2,-,N/A,,Clear,170,2012-11-28 20:35:00
2:55 PM,57.2,17.6,21,30.14,10.0,SSW,8.1,-,N/A,,Clear,200,2012-11-28 20:55:00
3:15 PM,55.4,17.6,23,30.14,10.0,South,5.8,-,N/A,,Clear,180,2012-11-28 21:15:00
3:35 PM,57.2,17.6,21,30.13,10.0,SSW,10.4,-,N/A,,Clear,210,2012-11-28 21:35:00
3:55 PM,55.4,15.8,21,30.12,10.0,SW,9.2,-,N/A,,Clear,220,2012-11-28 21:55:00
4:15 PM,55.4,15.8,21,30.13,10.0,SW,10.4,-,N/A,,Clear,220,2012-11-28 22:15:00
4:35 PM,55.4,14.0,20,30.12,10.0,SSW,10.4,-,N/A,,Clear,210,2012-11-28 22:35:00
4:55 PM,53.6,14.0,21,30.12,10.0,SW,5.8,-,N/A,,Clear,220,2012-11-28 22:55:00
5:15 PM,51.8,12.2,21,30.12,10.0,SW,5.8,-,N/A,,Clear,220,2012-11-28 23:15:00
5:35 PM,48.2,10.4,22,30.11,10.0,SSW,5.8,-,N/A,,Clear,210,2012-11-28 23:35:00
5:55 PM,48.2,10.4,22,30.11,10.0,South,5.8,-,N/A,,Clear,190,2012-11-28 23:55:00
6:15 PM,50.0,10.4,20,30.11,10.0,SSW,5.8,-,N/A,,Clear,200,2012-11-29 00:15:00
6:35 PM,42.8,8.6,25,30.11,10.0,SSW,5.8,-,N/A,,Clear,210,2012-11-29 00:35:00
6:55 PM,42.8,8.6,25,30.11,10.0,SW,5.8,-,N/A,,Clear,220,2012-11-29 00:55:00
7:15 PM,42.8,8.6,25,30.11,10.0,SSW,6.9,-,N/A,,Clear,200,2012-11-29 01:15:00
7:35 PM,39.2,8.6,28,30.11,10.0,South,9.2,-,N/A,,Clear,190,2012-11-29 01:35:00
7:55 PM,35.6,10.4,35,30.11,10.0,South,8.1,-,N/A,,Clear,180,2012-11-29 01:55:00
8:15 PM,33.8,8.6,35,30.11,10.0,South,8.1,-,N/A,,Clear,170,2012-11-29 02:15:00
8:35 PM,35.6,8.6,33,30.10,10.0,South,10.4,-,N/A,,Clear,180,2012-11-29 02:35:00
8:55 PM,35.6,10.4,35,30.09,10.0,South,12.7,-,N/A,,Clear,180,2012-11-29 02:55:00
9:15 PM,37.4,12.2,36,30.09,10.0,South,10.4,-,N/A,,Clear,180,2012-11-29 03:15:00
9:35 PM,35.6,10.4,35,30.09,10.0,South,6.9,-,N/A,,Clear,190,2012-11-29 03:35:00
9:55 PM,35.6,10.4,35,30.08,10.0,SSW,5.8,-,N/A,,Clear,200,2012-11-29 03:55:00
10:15 PM,35.6,10.4,35,30.08,10.0,SSW,10.4,-,N/A,,Clear,210,2012-11-29 04:15:00
10:35 PM,35.6,12.2,38,30.08,10.0,SW,9.2,-,N/A,,Clear,220,2012-11-29 04:35:00
10:55 PM,33.8,12.2,41,30.07,10.0,South,8.1,-,N/A,,Clear,190,2012-11-29 04:55:00
11:15 PM,42.8,15.8,34,30.07,10.0,SW,15.0,-,N/A,,Clear,220,2012-11-29 05:15:00
11:35 PM,48.2,15.8,27,30.07,10.0,SW,16.1,-,N/A,,Clear,220,2012-11-29 05:35:00
11:55 PM,46.4,15.8,29,30.07,10.0,SW,17.3,-,N/A,,Clear,220,2012-11-29 05:55:00